Date String (YYYY-MM-DD hh:mm:ss) UTC,Instrument flags,Ambient pressure (hPa),Sample flow (lpm),Bypass flow (lpm),Sample temperature (°C),Ambient temperature (°C),ASC tube jacket temperature (°C),LED temperature (°C),Box temperature (°C),Sample RH (%),Span deviation,Mass concentration (μg/m³),Mass concentration (μg/m³),Mass concentration (μg/m³)
DateTimeUTC,F1_M11,P_M11,Q1_M11,Q2_M11,T1_M11,T2_M11,T3_M11,T4_M11,T5_M11,U1_M11,ZSPAN_M11,X0_M11,X2_M11,X1_M11
2022-09-09 12:00:00,,0826.7,5.00,0.00,30.5,29.2,00.0,39.4,32.3,22.4,0001.7,0041.34,0017.00,0011.98
2022-09-09 12:01:00,,0826.7,5.00,0.00,30.5,29.2,00.0,39.4,32.3,22.3,0001.5,0042.19,0016.95,0011.92
2022-09-09 12:02:00,,0826.7,4.99,0.00,30.5,29.2,00.0,39.4,32.3,22.3,0001.3,0042.57,0016.84,0011.86
2022-09-09 12:03:00,,0826.7,5.00,0.00,30.5,29.2,00.0,39.4,32.3,22.2,0001.4,0043.47,0016.77,0011.78
2022-09-09 12:04:00,,0826.8,5.00,0.00,30.5,29.2,00.0,39.4,32.3,22.2,0001.7,0043.66,0016.70,0011.70
2022-09-09 12:05:00,,0826.7,5.00,0.00,30.5,29.2,00.0,39.4,32.3,22.1,0001.7,0042.64,0016.55,0011.68
2022-09-09 12:06:00,,0826.8,5.00,0.00,30.5,29.2,00.0,39.4,32.3,22.0,0002.0,0044.33,0016.51,0011.67
2022-09-09 12:07:00,,0826.8,5.00,0.00,30.5,29.2,00.0,39.4,32.3,22.0,0001.9,0044.07,0016.46,0011.67
2022-09-09 12:08:00,,0826.8,5.01,0.00,30.5,29.2,00.0,39.4,32.3,22.0,0001.9,0044.09,0016.36,0011.68
2022-09-09 12:09:00,,0826.8,5.00,0.00,30.5,29.2,00.0,39.4,32.3,21.9,0001.9,0043.90,0016.37,0011.66
2022-09-09 12:10:00,,0826.7,5.00,0.00,30.5,29.2,00.0,39.4,32.3,21.9,0001.9,0042.86,0016.36,0011.64
2022-09-09 12:11:00,,0826.8,5.00,0.00,30.5,29.2,00.0,39.4,32.3,21.9,0002.0,0043.16,0016.32,0011.60
2022-09-09 12:12:00,,0826.8,5.01,0.00,30.6,29.2,00.0,39.4,32.3,21.9,0002.2,0043.67,0016.21,0011.56
2022-09-09 12:13:00,,0826.8,5.00,0.00,30.6,29.3,00.0,39.4,32.3,21.9,0002.2,0043.05,0016.16,0011.53
2022-09-09 12:14:00,,0826.8,5.00,0.00,30.6,29.3,00.0,39.4,32.3,21.8,0002.2,0042.06,0016.20,0011.52
2022-09-09 12:15:00,,0826.8,5.00,0.00,30.6,29.3,00.0,39.4,32.3,21.8,0002.3,0042.08,0016.17,0011.52
2022-09-09 12:16:00,,0826.8,5.00,0.00,30.6,29.2,00.0,39.4,32.3,21.7,0002.5,0041.43,0016.07,0011.51
2022-09-09 12:17:00,,0826.8,5.00,0.00,30.6,29.2,00.0,39.4,32.3,21.7,0002.6,0040.58,0015.99,0011.48
2022-09-09 12:18:00,,0826.9,5.00,0.00,30.6,29.3,00.0,39.4,32.3,21.7,0002.6,0040.86,0015.92,0011.45
2022-09-09 12:19:00,,0827.0,4.99,0.00,30.6,29.3,00.0,39.4,32.3,21.6,0002.6,0041.36,0015.94,0011.42
2022-09-09 12:20:00,,0826.9,5.00,0.00,30.6,29.2,00.0,39.4,32.3,21.5,0002.5,0040.15,0015.85,0011.42
2022-09-09 12:21:00,,0826.9,5.00,0.00,30.6,29.2,00.0,39.4,32.3,21.4,0002.7,0039.91,0015.76,0011.40
2022-09-09 12:22:00,,0826.9,5.00,0.00,30.6,29.2,00.0,39.4,32.3,21.2,0002.8,0039.77,0015.68,0011.35
2022-09-09 12:23:00,,0826.9,5.00,0.00,30.6,29.2,00.0,39.4,32.3,21.0,0002.7,0039.27,0015.59,0011.32
2022-09-09 12:24:00,,0826.9,5.01,0.00,30.6,29.2,00.0,39.4,32.3,20.9,0002.5,0039.68,0015.47,0011.27
2022-09-09 12:25:00,,0826.9,5.00,0.00,30.6,29.2,00.0,39.4,32.3,21.0,0002.4,0039.35,0015.37,0011.25
2022-09-09 12:26:00,,0827.0,5.00,0.00,30.6,29.2,00.0,39.4,32.3,21.4,0002.3,0038.35,0015.29,0011.28
2022-09-09 12:27:00,,0827.1,5.00,0.00,30.6,29.2,00.0,39.4,32.3,21.5,0001.8,0038.34,0015.40,0011.30
2022-09-09 12:28:00,,0827.1,5.00,0.00,30.6,29.2,00.0,39.4,32.4,21.7,0001.5,0038.35,0015.46,0011.35
2022-09-09 12:29:00,,0826.9,5.01,0.00,30.6,29.2,00.0,39.4,32.3,21.8,0001.1,0037.60,0015.50,0011.36
2022-09-09 12:30:00,,0826.9,5.00,0.00,30.6,29.2,00.0,39.4,32.3,21.8,0001.4,0036.38,0015.50,0011.39
2022-09-09 12:31:00,,0827.0,5.00,0.00,30.6,29.2,00.0,39.4,32.3,21.9,0001.6,0037.11,0015.50,0011.41
2022-09-09 12:32:00,,0826.9,4.99,0.00,30.6,29.2,00.0,39.4,32.3,21.9,0001.9,0036.47,0015.48,0011.43
2022-09-09 12:33:00,,0827.0,5.00,0.00,30.6,29.2,00.0,39.4,32.3,21.9,0002.0,0036.11,0015.51,0011.49
2022-09-09 12:34:00,,0827.0,4.99,0.00,30.6,29.1,00.0,39.4,32.3,21.9,0002.2,0035.91,0015.54,0011.55
2022-09-09 12:35:00,,0827.1,5.00,0.00,30.5,29.1,00.0,39.4,32.3,22.0,0002.3,0037.47,0015.59,0011.62
2022-09-09 12:36:00,,0827.3,5.00,0.00,30.6,29.1,00.0,39.4,32.3,22.0,0002.2,0037.12,0015.55,0011.63
2022-09-09 12:37:00,,0827.1,5.00,0.00,30.6,29.1,00.0,39.4,32.3,22.0,0002.0,0037.19,0015.56,0011.61
2022-09-09 12:38:00,,0827.2,5.00,0.00,30.5,29.1,00.0,39.4,32.3,22.0,0002.3,0036.96,0015.48,0011.60
2022-09-09 12:39:00,,0827.1,5.01,0.00,30.5,29.1,00.0,39.4,32.3,22.0,0002.5,0036.55,0015.31,0011.58
2022-09-09 12:40:00,,0827.1,5.01,0.00,30.5,29.1,00.0,39.4,32.3,22.1,0002.8,0035.80,0015.18,0011.55
2022-09-09 12:41:00,,0827.1,5.00,0.00,30.5,29.1,00.0,39.4,32.3,22.1,0002.8,0035.22,0015.21,0011.53
2022-09-09 12:42:00,,0827.1,4.99,0.00,30.5,29.1,00.0,39.4,32.3,22.1,0002.8,0034.64,0015.16,0011.51
2022-09-09 12:43:00,,0827.2,5.00,0.00,30.5,29.1,00.0,39.4,32.3,22.1,0002.7,0034.28,0015.16,0011.51
2022-09-09 12:44:00,,0827.2,5.00,0.00,30.5,29.1,00.0,39.4,32.3,22.1,0002.4,0033.78,0015.11,0011.51
2022-09-09 12:45:00,,0827.1,4.99,0.00,30.5,29.2,00.0,39.4,32.3,22.1,0002.1,0032.89,0015.05,0011.51
2022-09-09 12:46:00,,0827.1,5.00,0.00,30.5,29.2,00.0,39.4,32.3,22.1,0002.1,0029.87,0015.05,0011.52
2022-09-09 12:47:00,,0827.1,5.00,0.00,30.5,29.1,00.0,39.4,32.3,22.1,0002.3,0030.67,0015.07,0011.51
2022-09-09 12:48:00,,0827.1,5.00,0.00,30.5,29.1,00.0,39.4,32.3,22.1,0002.9,0031.15,0015.00,0011.50
2022-09-09 12:49:00,,0827.1,5.00,0.00,30.5,29.1,00.0,39.4,32.3,22.0,0003.0,0031.06,0014.96,0011.46
2022-09-09 12:50:00,,0827.2,5.00,0.00,30.5,29.1,00.0,39.4,32.3,22.0,0003.0,0030.57,0014.91,0011.42
2022-09-09 12:51:00,,0827.2,5.00,0.00,30.5,29.1,00.0,39.4,32.3,22.0,0002.7,0030.68,0014.92,0011.41
2022-09-09 12:52:00,,0827.2,4.99,0.00,30.5,29.1,00.0,39.4,32.3,22.0,0002.3,0030.98,0014.81,0011.39
2022-09-09 12:53:00,,0827.2,5.00,0.00,30.5,29.1,00.0,39.4,32.3,22.0,0002.1,0030.76,0014.75,0011.35
2022-09-09 12:54:00,,0827.1,5.00,0.00,30.5,29.1,00.0,39.4,32.3,22.0,0001.9,0030.99,0014.56,0011.26
2022-09-09 12:55:00,,0827.2,5.01,0.00,30.5,29.1,00.0,39.4,32.3,22.0,0002.2,0031.17,0014.44,0011.17
2022-09-09 12:56:00,,0827.1,5.00,0.00,30.5,29.0,00.0,39.4,32.2,22.1,0002.2,0030.62,0014.22,0011.05
2022-09-09 12:57:00,,0827.2,5.00,0.00,30.5,29.0,00.0,39.4,32.3,22.1,0002.2,0029.47,0013.93,0010.91
2022-09-09 12:58:00,,0827.2,5.00,0.00,30.5,29.0,00.0,39.3,32.2,22.2,0002.1,0027.19,0013.66,0010.78
2022-09-09 12:59:00,,0827.2,4.99,0.00,30.5,29.0,00.0,39.4,32.2,22.3,0001.7,0025.27,0013.41,0010.66
